CW9392 Weather Reports


time (UTC)temp
C
wind
direction
speed
KPH
gust
KPH
rain 1hr
cm
rain 24hr
cm
rain mn
cm
humidity
%
barometer
mb
20240222101203 -3 177 0.0 0.0 0.00 0.00 0.00 52 1021.1
20240222100203 -3 177 0.0 0.0 0.00 0.00 0.00 52 1021.3
20240222095245 -3 177 0.0 0.0 0.00 0.00 0.00 52 1021.5
20240222094204 -3 177 0.0 0.0 0.00 0.00 0.00 52 1021.6
20240222093203 -3 177 0.0 0.0 0.00 0.00 0.00 52 1021.7
20240222092203 -3 177 0.0 0.0 0.00 0.00 0.00 52 1021.7
20240222091224 -3 177 0.0 0.0 0.00 0.00 0.00 52 1021.7
20240222090203 -3 177 0.0 0.0 0.00 0.00 0.00 52 1021.9
20240222085203 -3 177 0.0 0.0 0.00 0.00 0.00 52 1022.0
20240222084203 -3 177 0.0 0.0 0.00 0.00 0.00 52 1022.1
20240222083223 -3 177 0.0 0.0 0.00 0.00 0.00 52 1022.0
20240222082202 -3 177 0.0 0.0 0.00 0.00 0.00 52 1022.2
20240222081203 -3 177 0.0 0.0 0.00 0.00 0.00 52 1022.1
20240222080203 -3 177 0.0 0.0 0.00 0.00 0.00 52 1022.5
20240222075203 -3 177 0.0 0.0 0.00 0.00 0.00 52 1022.8
20240222074203 -3 177 0.0 0.0 0.00 0.00 0.00 52 1022.9
20240222073202 -3 177 0.0 0.0 0.00 0.00 0.00 52 1023.1
20240222072202 -3 177 0.0 0.0 0.00 0.00 0.00 52 1023.3
20240222071203 -3 177 0.0 0.0 0.00 0.00 0.00 52 1023.4
20240222070203 -3 177 0.0 0.0 0.00 0.00 0.00 52 1023.5
20240222065202 -3 177 0.0 0.0 0.00 0.00 0.00 52 1023.5
20240222064202 -3 177 0.0 0.0 0.00 0.00 0.00 52 1023.7
20240222063203 -3 177 0.0 0.0 0.00 0.00 0.00 52 1023.7
20240222062203 -3 177 0.0 0.0 0.00 0.00 0.00 52 1023.8
20240222061224 -3 177 0.0 0.0 0.00 0.00 0.00 52 1024.0
20240222060203 -3 177 0.0 0.0 0.00 0.00 0.00 52 1024.0
20240222055203 -3 177 0.0 0.0 0.00 0.00 0.00 52 1024.1
20240222054224 -3 177 0.0 0.0 0.00 0.00 0.00 52 1024.1
20240222053224 -3 177 0.0 0.0 0.00 0.00 0.00 52 1024.5
20240222052203 -3 177 0.0 0.0 0.00 0.00 0.00 52 1024.8
20240222051203 -3 177 0.0 0.0 0.00 0.00 0.00 52 1024.9
20240222050202 -3 177 0.0 0.0 0.00 0.00 0.00 52 1025.1
20240222045203 -3 177 0.0 0.0 0.00 0.00 0.00 52 1025.0
20240222044203 -3 177 0.0 0.0 0.00 0.00 0.00 52 1025.2
20240222043203 -3 177 0.0 0.0 0.00 0.00 0.00 52 1025.2
20240222041203 -3 177 0.0 0.0 0.00 0.00 0.00 52 1025.6
20240222040224 -3 177 0.0 0.0 0.00 0.00 0.00 52 1025.6
20240222035224 -3 177 0.0 0.0 0.00 0.00 0.00 52 1025.8
20240222034225 -3 177 0.0 0.0 0.00 0.00 0.00 52 1025.9
20240222033203 -3 177 0.0 0.0 0.00 0.00 0.00 52 1025.9
20240222032203 -3 177 0.0 0.0 0.00 0.00 0.00 52 1026.1
20240222031203 -3 177 0.0 0.0 0.00 0.00 0.00 52 1026.2
20240222030203 -3 177 0.0 0.0 0.00 0.00 0.00 52 1026.2
20240222025203 -3 177 0.0 0.0 0.00 0.00 0.00 52 1026.5
20240222024202 -3 177 0.0 0.0 0.00 0.00 0.00 52 1026.7
20240222023204 -3 177 0.0 0.0 0.00 0.00 0.00 52 1026.9
20240222022202 -3 177 0.0 0.0 0.00 0.00 0.00 52 1027.2
20240222021203 -3 177 0.0 0.0 0.00 0.00 0.00 52 1027.2
20240222020224 -3 177 0.0 0.0 0.00 0.00 0.00 52 1027.2
20240222015203 -3 177 0.0 0.0 0.00 0.00 0.00 52 1027.2
20240222014203 -3 177 0.0 0.0 0.00 0.00 0.00 52 1027.4
20240222013203 -3 177 0.0 0.0 0.00 0.00 0.00 52 1027.3
20240222012203 -3 177 0.0 0.0 0.00 0.00 0.00 52 1027.4
20240222011203 -3 177 0.0 0.0 0.00 0.00 0.00 52 1027.5
20240222010203 -3 177 0.0 0.0 0.00 0.00 0.00 52 1027.8
20240222005203 -3 177 0.0 0.0 0.00 0.00 0.00 52 1027.7
20240222004203 -3 177 0.0 0.0 0.00 0.00 0.00 52 1027.8
20240222003203 -3 177 0.0 0.0 0.00 0.00 0.00 52 1027.9
20240222002203 -3 177 0.0 0.0 0.00 0.00 0.00 52 1028.0
20240222001203 -3 177 0.0 0.0 0.00 0.00 0.00 52 1028.0
20240222000204 -3 177 0.0 0.0 0.00 0.00 0.00 52 1028.1
20240221235203 -3 177 0.0 0.0 0.00 0.00 0.00 52 1028.3
20240221234203 -3 177 0.0 0.0 0.00 0.00 0.00 52 1028.3
20240221233224 -3 177 0.0 0.0 0.00 0.00 0.00 52 1028.3
20240221232203 -3 177 0.0 0.0 0.00 0.00 0.00 52 1028.2
20240221231203 -3 177 0.0 0.0 0.00 0.00 0.00 52 1028.2
20240221230203 -3 177 0.0 0.0 0.00 0.00 0.00 52 1028.2
20240221225203 -3 177 0.0 0.0 0.00 0.00 0.00 52 1028.2
20240221224203 -3 177 0.0 0.0 0.00 0.00 0.00 51 1028.2
20240221223203 -3 177 0.0 0.0 0.00 0.00 0.00 51 1028.2
20240221222225 -2 177 0.0 0.0 0.00 0.00 0.00 50 1028.4
20240221221204 -2 177 0.0 0.0 0.00 0.00 0.00 50 1028.2
20240221220204 -2 177 0.0 0.0 0.00 0.00 0.00 51 1028.4
20240221215203 -1 188 0.0 0.0 0.00 0.00 0.00 50 1028.4
20240221214203 -1 177 0.0 0.0 0.00 0.00 0.00 49 1028.3
20240221213224 -1 180 0.0 0.0 0.00 0.00 0.00 48 1028.4
20240221212203 -1 192 0.0 0.0 0.00 0.00 0.00 47 1028.5
20240221211203 -1 176 0.0 0.0 0.00 0.00 0.00 47 1028.6
20240221210203 -1 165 0.0 0.0 0.00 0.00 0.00 47 1028.6
20240221205204 -1 168 0.0 0.0 0.00 0.00 0.00 47 1028.8
20240221204224 -1 198 0.0 0.0 0.00 0.00 0.00 47 1028.8
20240221203203 -1 169 0.0 0.0 0.00 0.00 0.00 48 1029.0
20240221202203 -1 165 0.0 0.0 0.00 0.00 0.00 45 1029.1
20240221201203 -1 202 0.0 0.0 0.00 0.00 0.00 46 1029.3
20240221200203 -1 145 1.6 8.0 0.00 0.00 0.00 44 1029.5
20240221195203 -1 138 0.0 8.0 0.00 0.00 0.00 44 1029.7
20240221194202 -1 137 6.4 9.7 0.00 0.00 0.00 44 1029.9
20240221193203 -1 134 0.0 8.0 0.00 0.00 0.00 43 1030.1
20240221192203 -1 155 0.0 0.0 0.00 0.00 0.00 43 1030.2
20240221191203 -2 148 0.0 0.0 0.00 0.00 0.00 45 1030.5
20240221190224 -2 127 0.0 0.0 0.00 0.00 0.00 46 1030.8
20240221185202 -3 129 0.0 0.0 0.00 0.00 0.00 46 1031.1
20240221184202 -3 130 0.0 0.0 0.00 0.00 0.00 45 1031.3
20240221183202 -3 123 0.0 0.0 0.00 0.00 0.00 46 1031.6
20240221182203 -3 126 0.0 0.0 0.00 0.00 0.00 46 1031.9
20240221181203 -3 130 0.0 0.0 0.00 0.00 0.00 46 1032.1
20240221180224 -4 126 0.0 0.0 0.00 0.00 0.00 46 1032.4
20240221175224 -4 148 0.0 8.0 0.00 0.00 0.00 46 1032.7
20240221174203 -5 120 0.0 0.0 0.00 0.00 0.00 49 1032.8
20240221173202 -5 99 0.0 0.0 0.00 0.00 0.00 48 1032.8
20240221172203 -5 119 0.0 0.0 0.00 0.00 0.00 48 1033.1
20240221171203 -5 101 0.0 0.0 0.00 0.00 0.00 47 1033.3
20240221170203 -5 132 0.0 0.0 0.00 0.00 0.00 44 1033.6
20240221165203 -5 203 0.0 0.0 0.00 0.00 0.00 44 1033.8
20240221164203 -5 169 0.0 0.0 0.00 0.00 0.00 46 1034.1
20240221163203 -6 136 0.0 0.0 0.00 0.00 0.00 50 1034.5
20240221162202 -6 145 0.0 0.0 0.00 0.00 0.00 48 1034.8
20240221161202 -6 360 0.0 0.0 0.00 0.00 0.00 48 1035.0
20240221160203 -7 138 0.0 0.0 0.00 0.00 0.00 53 1035.3
20240221155203 -7 151 0.0 1.6 0.00 0.00 0.00 53 1035.7
20240221154203 -7 142 6.4 16.1 0.00 0.00 0.00 56 1035.8
20240221153203 -8 137 0.0 0.0 0.00 0.00 0.00 57 1035.9
20240221152202 -9 147 0.0 0.0 0.00 0.00 0.00 57 1036.0
20240221151203 -9 146 0.0 0.0 0.00 0.00 0.00 58 1036.4
20240221150245 -10 138 0.0 8.0 0.00 0.00 0.00 59 1036.4
20240221145203 -10 140 6.4 9.7 0.00 0.00 0.00 61 1036.5
20240221144203 -11 145 3.2 9.7 0.00 0.00 0.00 63 1036.6
20240221143203 -11 153 0.0 0.0 0.00 0.00 0.00 65 1036.6
20240221142203 -12 138 0.0 0.0 0.00 0.00 0.00 68 1036.7
20240221141203 -14 130 0.0 0.0 0.00 0.00 0.00 73 1036.8
20240221140203 -15 121 0.0 0.0 0.00 0.00 0.00 74 1036.9
20240221135224 -16 121 0.0 0.0 0.00 0.00 0.00 75 1037.0
20240221134203 -17 121 0.0 0.0 0.00 0.00 0.00 76 1036.7
20240221133203 -17 120 0.0 0.0 0.00 0.00 0.00 79 1036.8
20240221132203 -19 120 0.0 0.0 0.00 0.00 0.00 79 1036.9
20240221131203 -20 120 0.0 0.0 0.00 0.00 0.00 79 1036.9
20240221130203 -20 120 0.0 0.0 0.00 0.00 0.00 80 1036.8
20240221125203 -21 120 0.0 0.0 0.00 0.00 0.00 79 1036.8
20240221124203 -21 120 0.0 0.0 0.00 0.00 0.00 79 1036.8
20240221123203 -21 111 0.0 0.0 0.00 0.00 0.00 77 1036.6
20240221122205 -21 111 0.0 0.0 0.00 0.00 0.00 78 1036.4
20240221121205 -21 286 0.0 0.0 0.00 0.00 0.00 80 1036.5
20240221120205 -22 286 0.0 0.0 0.00 0.00 0.00 82 1036.5
20240221115205 -23 286 0.0 0.0 0.00 0.00 0.00 81 1036.2
20240221114205 -23 286 0.0 0.0 0.00 0.00 0.00 81 1036.1
20240221113205 -10 286 0.0 0.0 0.00 0.00 0.00 55 1036.4
20240221112205 -10 286 0.0 0.0 0.00 0.00 0.00 55 1036.1
20240221111226 -10 286 0.0 0.0 0.00 0.00 0.00 55 1036.0
20240221110205 -10 286 0.0 0.0 0.00 0.00 0.00 55 1036.0
20240221105226 -10 286 0.0 0.0 0.00 0.00 0.00 55 1035.9
20240221104205 -10 286 0.0 0.0 0.00 0.00 0.00 55 1036.0
20240221103205 -10 286 0.0 0.0 0.00 0.00 0.00 55 1036.0
20240221102226 -10 286 0.0 0.0 0.00 0.00 0.00 55 1036.0